This demonstration page uses our WeatherBlox Daily Observations layout. Learn more.

38.89511, -77.03637

Hourly Observations for January 19, 2018

Temp ( °F °C ) Dew Point ( °F °C ) Humidity (%) Winds ( mph kmh ) Pressure ( in mb ) Visibility ( mi km ) Precip ( " mm )
12:52 am 00:52 Clear 30 -1.1 19 -7.2 64 64 SSW 6 9 30.12 1020 10 16.0934 0 0
1:52 am 01:52 Mostly Clear 29 -1.7 22 -5.6 75 75 S 8 13 30.12 1020 10 16.0934 0 0
2:52 am 02:52 Partly Cloudy 29 -1.7 20 -6.7 69 69 S 6 9 30.11 1020 10 16.0934 0 0
3:52 am 03:52 Partly Cloudy 29 -1.7 20 -6.7 69 69 S 3 6 30.1 1019 10 16.0934 0 0
4:52 am 04:52 Clear 26 -3.3 20 -6.7 78 78 S 6 9 30.1 1019 10 16.0934 0 0
5:52 am 05:52 Clear 27 -2.8 21 -6.1 78 78 Calm 30.11 1020 10 16.0934 0 0
6:52 am 06:52 Mostly Clear 28 -2.2 19 -7.2 69 69 Calm 30.13 1020 10 16.0934 0 0
7:52 am 07:52 Mostly Sunny 29 -1.7 19 -7.2 66 66 Calm 30.14 1021 10 16.0934 0 0
8:52 am 08:52 Mostly Cloudy 31 -0.6 25 -3.9 79 79 S 7 11 30.14 1021 10 16.0934 0 0
9:52 am 09:52 Mostly Cloudy 38 3.3 22 -5.6 52 52 Calm 30.15 1021 10 16.0934 0 0
10:52 am 10:52 Partly Cloudy 47 8.3 15 -9.4 28 28 W 10 17 30.14 1021 10 16.0934 0 0
11:52 am 11:52 Partly Cloudy 46 7.8 19 -7.2 34 34 S 8 13 30.11 1020 10 16.0934 0 0
12:52 pm 12:52 Partly Cloudy 50 10 14 -10 24 24 ESE 5 7 30.07 1018 10 16.0934 0 0
1:52 pm 13:52 Mostly Sunny 50 10 16 -8.9 26 26 S 14 22 30.05 1018 10 16.0934 0 0
2:52 pm 14:52 Mostly Sunny 50 10 11 -11.7 21 21 S 13 20 30.04 1017 10 16.0934 0 0
3:52 pm 15:52 Partly Cloudy 47 8.3 20 -6.7 34 34 S 10 17 30.04 1017 10 16.0934 0 0
4:52 pm 16:52 Mostly Sunny 45 7.2 16 -8.9 31 31 S 8 13 30.04 1017 10 16.0934 0 0
5:52 pm 17:52 Clear 45 7.2 13 -10.6 27 27 S 7 11 30.04 1017 10 16.0934 0 0
6:52 pm 18:52 Clear 41 5 19 -7.2 41 41 SSW 6 9 30.05 1018 10 16.0934 0 0
7:52 pm 19:52 Clear 38 3.3 22 -5.6 52 52 S 7 11 30.05 1018 10 16.0934 0 0
8:52 pm 20:52 Clear 38 3.3 18 -7.8 44 44 S 7 11 30.05 1018 10 16.0934 0 0
9:52 pm 21:52 Clear 36 2.2 18 -7.8 48 48 WSW 3 6 30.05 1018 10 16.0934 0 0
10:52 pm 22:52 Clear 33 0.6 20 -6.7 58 58 SSE 5 7 30.05 1018 10 16.0934 0 0
11:52 pm 23:52 Clear 33 0.6 21 -6.1 61 61 SSW 8 13 30.04 1017 10 16.0934 0 0

Powered by AerisWeather